Flag for Switzerland Weather past 2 weeks in Vernier, Geneva, Switzerland

Now
36 °F

Passing clouds.


Feels Like: 27 °F
Forecast: 27 / 38 °F
Wind: 12 mph from Northeast

Location: Geneva Cointrin Airport

Current Time: Jan 25, 2015 at 5:35:49 AM

Latest Report: Jan 25, 2015 at 4:20 AM


Visibility: N/A

Pressure: 30.27 "Hg

Humidity: 81%

Dew point: 30 °F

Location of VernierLocation

Historic Weather in Vernier — Graph

°F

Vernier temperature yesterday

Maximum temperature yesterday: 39 °F (at 10:50 AM)
Minimum temperature yesterday: 32 °F (at 8:50 PM)
Average temperature yesterday: 35 °F

Past Weeks' High & Low Weather Summary

 TemperatureHumidityPressure
High63 °F (Jan 10, 3:20 PM)100% (Jan 12, 12:50 AM)30.54 "Hg (Jan 12, 12:50 AM)
Low25 °F (Jan 18, 4:50 AM)43% (Jan 12, 2:50 PM)29.68 "Hg (Jan 16, 2:20 PM)
Average39 °F82%30.04 "Hg
* Reported Jan 10 3:20 AM — Jan 25 3:50 AM, Vernier, Weather by CustomWeather, © 2014

Note: Actual official high and low records may vary slightly from our data, if they occured in-between our weather recording intervals... More about our weather records

Advertising

Vernier weather history for previous 24 hours

 ConditionsComfort  
Time TempWeatherWind HumidityBarometerVisibility
3:50 AM
Jan 25
34 °FPassing clouds.10 mph93%30.27 "HgN/A
3:20 AM34 °FPassing clouds.9 mph93%30.27 "HgN/A
2:50 AM34 °FPassing clouds.7 mph93%30.27 "HgN/A
1:50 AM34 °FPassing clouds.2 mph93%30.27 "HgN/A
1:20 AM34 °FOvercast.6 mph87%30.24 "HgN/A
12:50 AM34 °FPassing clouds.8 mph87%30.24 "HgN/A
12:20 AM34 °FPassing clouds.8 mph87%30.24 "HgN/A
11:50 PM
Jan 24
34 °FPassing clouds.10 mph93%30.24 "HgN/A
11:20 PM32 °FScattered showers. Passing clouds.10 mph100%30.24 "HgN/A
10:20 PM32 °FPassing clouds.8 mph100%30.24 "HgN/A
9:50 PM32 °FSnow flurries. Partly cloudy.12 mph100%30.24 "Hg2 mi
9:20 PM32 °FSnow showers. Partly cloudy.12 mph100%30.21 "Hg1 mi
8:50 PM32 °FSnow flurries. Partly cloudy.12 mph93%30.21 "Hg2 mi
8:20 PM34 °FSnow flurries. Partly cloudy.10 mph93%30.21 "Hg4 mi
7:50 PM34 °FPartly cloudy.5 mph81%30.18 "HgN/A
7:20 PM34 °FSnow flurries. Passing clouds.3 mph87%30.18 "HgN/A
6:50 PM34 °FScattered showers. Partly cloudy.2 mph87%30.15 "HgN/A
6:20 PM34 °FSnow flurries. Partly cloudy.1 mph100%30.15 "Hg4 mi
5:50 PM34 °FScattered showers. Partly cloudy.3 mph100%30.12 "Hg5 mi
5:20 PM34 °FBroken clouds.2 mph93%30.15 "Hg4 mi
4:50 PM34 °FScattered showers. Broken clouds.2 mph93%30.12 "Hg4 mi
4:20 PM34 °FScattered showers. Broken clouds.3 mph100%30.12 "Hg4 mi
3:50 PM34 °FLight snow. Partly sunny.5 mph93%30.12 "Hg1 mi
3:20 PM34 °FLight snow. Partly sunny.1 mph93%30.12 "Hg1 mi
2:50 PM34 °FSnow. Dense fog.2 mph93%30.12 "Hg1 mi
2:20 PM36 °FLight snow. Broken clouds.7 mph81%30.12 "Hg2 mi
1:50 PM37 °FLight snow. Broken clouds.7 mph65%30.12 "HgN/A
1:20 PM39 °FBroken clouds.6 mph61%30.12 "HgN/A
12:50 PM37 °FBroken clouds.5 mph60%30.15 "HgN/A
12:20 PM39 °FBroken clouds.5 mph56%30.15 "HgN/A
11:50 AM39 °FBroken clouds.1 mph61%30.18 "HgN/A
11:20 AM39 °FBroken clouds.2 mph61%30.18 "HgN/A
10:50 AM39 °FBroken clouds.3 mph56%30.18 "HgN/A
10:20 AM37 °FPartly sunny.3 mph60%30.18 "HgN/A
9:50 AM37 °FPartly sunny.2 mph65%30.18 "HgN/A
9:20 AM36 °FPartly sunny.2 mph75%30.21 "HgN/A
8:50 AM36 °FPartly sunny.1 mph75%30.18 "HgN/A
8:20 AM36 °FPartly sunny.3 mph75%30.18 "HgN/A
7:50 AM36 °FPassing clouds.7 mph70%30.18 "HgN/A
7:20 AM36 °FOvercast.6 mph75%30.18 "HgN/A
6:50 AM36 °FOvercast.5 mph75%30.18 "HgN/A
6:20 AM36 °FOvercast.6 mph75%30.18 "HgN/A
5:50 AM36 °FOvercast.7 mph75%30.18 "HgN/A
5:20 AM36 °FOvercast.7 mph75%30.18 "HgN/A
Weather by CustomWeather, © 2014

See weather overviewHow to use our weather pages